Location: Chrome
(40.5765°N, 74.2163°W)
Time: 13:55:36
(UTC+00:00)

Cosmos 1844 Rocket - Pass Details

Date: 06 December 2019
Orbit: 825 x 844 km, 71.0° (Epoch: 28 January)

Event Time Altitude Azimuth Distance (km) Brightness Sun altitude
Rises 22:18:17 0° 331° (NNW) 3,371 5.9 -9.1°
Reaches altitude 10° 22:20:46 10° 327° (NNW) 2,435 5.3 -9.6°
Maximum altitude 22:26:10 53° 252° (WSW) 1,017 3.6 -10.5°
Drops below altitude 10° 22:31:33 10° 177° (S) 2,430 5.3 -11.5°
Sets 22:34:02 0° 173° (S) 3,362 6.0 -11.9°
